DW8548 Weather Reports


time (UTC)temp
F
wind
direction
speed
knots
gust
knots
rain 1hr
in
rain 24hr
in
rain mn
in
humidity
%
barometer
mb
20260905124600 56 0 0.0 1.7 0.00 0.19 0.19 91 1015.8
20260905123106 56 0 0.0 0.9 0.03 0.19 0.19 91 1015.5
20260905121605 57 0 0.0 0.9 0.12 0.19 0.19 91 1015.7
20260905120112 57 0 0.0 4.3 0.16 0.19 0.19 91 1015.6
20260905114611 57 244 0.9 6.1 0.15 0.18 0.18 90 1015.6
20260905113102 57 342 1.7 6.1 0.13 0.16 0.16 89 1015.3
20260905111653 58 331 1.7 6.1 0.03 0.07 0.07 88 1015.2
20260905110059 58 5 0.9 7.0 0.00 0.03 0.03 87 1015.0
20260905104559 59 0 0.9 5.2 0.00 0.03 0.03 87 1014.8
20260905103109 59 349 0.9 8.7 0.00 0.03 0.03 85 1014.7
20260905101602 60 304 2.6 8.7 0.00 0.03 0.03 83 1014.3
20260905100104 61 338 1.7 7.0 0.00 0.03 0.03 79 1014.3
20260905094605 62 79 0.0 2.6 0.00 0.03 0.03 75 1014.0
20260905093122 62 313 0.9 5.2 0.00 0.03 0.03 74 1013.9
20260905091604 63 289 0.9 7.8 0.00 0.03 0.03 73 1013.7
20260905084603 63 0 0.9 9.6 0.00 0.03 0.03 68 1013.6
20260905083059 64 350 0.9 7.0 0.00 0.03 0.03 67 1013.7
20260905081603 64 0 0.0 4.3 0.00 0.03 0.03 70 1014.0
20260905074611 64 256 0.9 12.2 0.00 0.03 0.03 72 1014.3
20260905073104 65 282 1.7 8.7 0.00 0.03 0.03 70 1014.3
20260905071558 64 40 1.7 7.8 0.00 0.03 0.03 71 1014.4
20260905070106 64 355 1.7 7.0 0.00 0.03 0.03 71 1014.4
20260905064631 65 0 1.7 12.2 0.00 0.03 0.03 74 1014.3
20260905063103 65 355 1.7 7.0 0.01 0.03 0.03 75 1014.6
20260905061604 63 45 0.9 3.5 0.03 0.03 0.03 82 1014.6
20260905060111 60 48 0.9 12.2 0.03 0.03 0.03 88 1015.0
20260905054607 59 310 0.9 5.2 0.03 0.03 0.03 87 1015.4
20260905053104 59 36 0.9 7.8 0.01 0.01 0.01 84 1015.4
20260905051558 62 355 2.6 8.7 0.00 0.00 0.00 73 1015.6
20260905050108 65 304 1.7 9.6 0.00 0.00 0.00 63 1015.6
20260905044606 65 310 2.6 8.7 0.00 0.00 0.00 64 1016.0
20260905043108 66 323 1.7 5.2 0.00 0.00 0.00 62 1016.1
20260905041603 67 360 1.7 7.8 0.00 0.00 0.00 61 1016.1
20260905034609 65 360 0.9 4.3 0.00 0.00 0.00 65 1016.7
20260905033101 65 360 0.9 6.1 0.00 0.00 0.00 65 1016.8
20260905031605 65 355 0.9 6.1 0.00 0.00 0.00 65 1017.1
20260905030119 64 24 0.0 3.5 0.00 0.00 0.00 68 1017.2
20260905024605 62 28 0.0 2.6 0.00 0.00 0.00 71 1017.7
20260905023101 62 24 0.9 5.2 0.00 0.00 0.00 72 1017.8
20260905021604 61 0 0.0 3.5 0.00 0.00 0.00 74 1018.0
20260905020107 62 13 0.0 1.7 0.00 0.00 0.00 76 1018.0
20260905014603 61 75 0.9 4.3 0.00 0.00 0.00 77 1018.4
20260905013101 62 0 0.0 2.6 0.00 0.00 0.00 80 1018.4
20260905011608 61 81 0.0 1.7 0.00 0.00 0.00 81 1018.6
20260905010103 59 5 0.9 3.5 0.00 0.00 0.00 83 1018.8
20260905004608 58 0 0.0 4.3 0.00 0.00 0.00 85 1018.9
20260905003101 58 27 0.9 5.2 0.00 0.00 0.00 82 1019.1
20260905001609 58 0 0.0 1.7 0.00 0.00 0.00 80 1018.9
20260905000105 58 5 0.0 1.7 0.00 0.00 0.00 80 1018.6
20260904234608 57 0 0.0 0.9 0.00 0.00 0.00 80 1018.5
20260904233103 57 29 0.0 3.5 0.00 0.00 0.00 78 1018.4
20260904231604 57 0 0.0 0.9 0.00 0.00 0.00 78 1018.4
20260904230106 57 0 0.0 0.9 0.00 0.00 0.00 75 1018.2
20260904224602 56 0 0.0 0.9 0.00 0.00 0.00 75 1018.2
20260904223101 56 0 0.0 0.9 0.00 0.00 0.00 75 1018.2
20260904221608 56 0 0.0 0.9 0.00 0.00 0.00 75 1018.4
20260904220111 56 0 0.0 0.9 0.00 0.00 0.00 76 1018.3
20260904214605 56 0 0.0 1.7 0.00 0.00 0.00 76 1018.2
20260904213104 56 0 0.0 1.7 0.00 0.00 0.00 75 1018.1
20260904211608 56 0 0.0 0.9 0.00 0.00 0.00 77 1017.9
20260904210111 56 0 0.0 0.0 0.00 0.00 0.00 78 1018.1
20260904204606 56 0 0.0 0.0 0.00 0.00 0.00 78 1018.2
20260904203109 56 0 0.0 0.0 0.00 0.00 0.00 77 1018.0
20260904201606 56 0 0.0 0.0 0.00 0.00 0.00 75 1018.1
20260904200134 56 0 0.0 0.0 0.00 0.00 0.00 73 1018.1
20260904194635 56 0 0.0 0.0 0.00 0.00 0.00 72 1018.3
20260904193119 57 0 0.0 0.0 0.00 0.00 0.00 72 1018.5
20260904191623 57 0 0.0 0.0 0.00 0.00 0.00 72 1018.7
20260904190104 57 0 0.0 0.0 0.00 0.00 0.00 72 1018.7
20260904184610 57 0 0.0 0.0 0.00 0.00 0.00 71 1018.9
20260904183101 57 0 0.0 0.9 0.00 0.00 0.00 69 1019.2
20260904181601 58 43 0.0 1.7 0.00 0.00 0.00 67 1019.3
20260904180103 58 0 0.0 2.6 0.00 0.00 0.00 65 1019.6
20260904174606 57 340 0.0 0.9 0.00 0.00 0.00 68 1019.7
20260904173109 58 0 0.0 0.0 0.00 0.00 0.00 68 1019.9
20260904171601 58 319 0.0 3.5 0.00 0.00 0.00 66 1019.9
20260904170059 58 0 0.0 2.6 0.00 0.00 0.00 66 1020.1
20260904164603 57 0 0.0 0.9 0.00 0.02 0.00 68 1020.2
20260904163058 58 0 0.0 1.7 0.00 0.02 0.00 67 1020.3
20260904161601 58 0 0.0 1.7 0.00 0.02 0.00 66 1020.4
20260904160103 58 0 0.0 1.7 0.00 0.02 0.00 66 1020.4
20260904154620 58 257 0.0 3.5 0.00 0.03 0.02 66 1020.6
20260904153103 58 0 0.0 1.7 0.00 0.03 0.02 66 1020.6
20260904151611 58 0 0.9 3.5 0.00 0.03 0.02 65 1020.7
20260904150106 58 0 0.0 0.9 0.00 0.03 0.02 67 1021.0
20260904144604 59 0 0.0 3.5 0.00 0.03 0.02 66 1021.1
20260904143101 59 262 0.9 2.6 0.00 0.03 0.02 67 1021.3
20260904141623 59 253 0.0 1.7 0.00 0.03 0.02 67 1021.3
20260904140109 58 0 0.0 1.7 0.00 0.03 0.02 68 1021.3
20260904134611 59 258 0.0 2.6 0.00 0.03 0.02 67 1021.3
20260904133116 59 0 0.0 1.7 0.00 0.03 0.02 66 1021.3
20260904131615 59 255 0.0 4.3 0.00 0.03 0.02 64 1021.3